QB50P1

Last updated on Sat Feb 08 2025 00:03:03 GMT+0000 (Coordinated Universal Time)

1 40025U 14033R 25037.86874574 .00014559 00000+0 97253-3 0 9990 2 40025 98.0718 14.0193 0013441 107.7638 252.5056 15.07040636578130
UTC large
Height (km)
Speed (km/s)
/
Latitude / Longitude
Inclination (degrees)
Orbital Period (minutes)
Azimuth
Elevation
Range (km)
Doppler Factor

Next 0 passes for location: London (51.5072 / 0.1276)

Sorry there are no passes over London.